Regional Weather Roundup
Issued by NWS

Home | Current Version | Previous Version | Text Only | Print | Product List | Glossary On
Versions: 1 2 3 4 5 6 7 8 9 10 11 12 13 14 15 16 17 18 19 20 21 22 23 24 25 26 27 28 29 30 31 32 33 34 35 36 37 38 39 40 41 42 43 44 45 46 47 48 49 50
000
ASUS44 KJAN 271810
RWRMS

MISSISSIPPI HOURLY WEATHER ROUNDUP
NATIONAL WEATHER SERVICE JACKSON MS
1200 PM CST SAT DEC 27 2014

NOTE: "FAIR: INDICATES FEW OR NO CLOUDS BELOW 12,000 FEET WITH NO
SIGNIFICANT WEATHER AND/OR OBSTRUCTIONS TO VISIBILITY.

MSZ001>002-007>008-010>013-018>021-025>028-034>036-271900-
NORTHWEST MISSISSIPPI

CITY           SKY/WX    TMP DP  RH WIND       PRES   REMARKS
CLARKSDALE     CLOUDY    55  55 100 CALM      30.10F VSB 1
CLEVELAND      CLOUDY    57  57 100 SE5       30.08F FOG
GREENWOOD      LGT RAIN  61  57  87 S15       30.10F
6HR MIN TEMP:  54; 6HR MAX TEMP:  61; 6HR PCP:  0.12;

GREENVILLE     CLOUDY    62  58  86 S10       30.07F
6HR MIN TEMP:  55; 6HR MAX TEMP:  62; 6HR PCP:  0.01;

GRENADA        CLOUDY    57  55  94 CALM      30.11F
OLIVE BRANCH   LGT RAIN  52  52 100 SE7       30.12F FOG
OXFORD         CLOUDY    50  50 100 CALM      30.14F FOG
TUNICA         RAIN      55  54  94 SE5       30.11F
$$

MSZ003>006-009-014>017-022>024-029>033-037>039-271900-
NORTHEAST MISSISSIPPI

CITY           SKY/WX    TMP DP  RH WIND       PRES   REMARKS
COLUMBUS AFB   CLOUDY    56  49  78 S8        30.16F
6HR MIN TEMP:  48; 6HR MAX TEMP:  56; 6HR PCP:  0.02;

CORINTH        CLOUDY    50  48  93 SE10      30.13F
GOLDN TRIANGLE CLOUDY    55  48  76 S14       30.16F
STARKVILLE     CLOUDY    54  50  87 SE5       30.15F
TUPELO         CLOUDY    52  48  86 S9        30.14F
6HR MIN TEMP:  49; 6HR MAX TEMP:  52; 6HR PCP:  0.28;

$$

MSZ040-058-271900-
CENTRAL MISSISSIPPI

CITY           SKY/WX    TMP DP  RH WIND       PRES   REMARKS
JACKSON INTL   CLOUDY    59  57  93 S9        30.14F
6HR MIN TEMP:  54; 6HR MAX TEMP:  59; 6HR PCP:  0.03;

JACKSON HAWKNS CLOUDY    60  56  86 SE13      30.13F
6HR MIN TEMP:  53; 6HR MAX TEMP:  60; 6HR PCP:  0.01;

MERIDIAN KEY   CLOUDY    58  52  80 SE6       30.18F
6HR MIN TEMP:  49; 6HR MAX TEMP:  59; 6HR PCP:  0.01;

MERIDIAN NAS   CLOUDY    56  51  84 SE7       30.18F
6HR MIN TEMP:  48; 6HR MAX TEMP:  57; 6HR PCP:  0.04;

RAYMOND        CLOUDY    61  55  82 S14       30.12F
VICKSBURG      CLOUDY    67  60  78 S12       30.10F
6HR MIN TEMP:  57; 6HR MAX TEMP:  68;

$$

MSZ059>079-271900-
SOUTH MISSISSIPPI

CITY           SKY/WX    TMP DP  RH WIND       PRES   REMARKS
HATTIESBURG    HVY RAIN  57  56  96 CALM      30.16F FOG
6HR MIN TEMP:  53; 6HR MAX TEMP:  58; 6HR PCP:  0.10;

MCCOMB         LGT RAIN  63  61  93 SE7       30.10F
6HR MIN TEMP:  56; 6HR MAX TEMP:  62; 6HR PCP:  0.27;

NATCHEZ        CLOUDY    64  61  88 SE12      30.10F
6HR MIN TEMP:  59; 6HR MAX TEMP:  64;

PINE BELT      CLOUDY    55  54  94 CALM      30.18F
6HR MIN TEMP:  52; 6HR MAX TEMP:  55;

$$

MSZ080>082-271900-
COASTAL MISSISSIPPI

CITY           SKY/WX    TMP DP  RH WIND       PRES   REMARKS
BAY ST LOUIS   RAIN      64  61  88 SE6       30.14F
BILOXI         LGT RAIN  65  65 100 SE13      30.14F FOG
6HR MIN TEMP:  63; 6HR MAX TEMP:  65; 6HR PCP:  0.97;

PASCAGOULA     LGT RAIN  63  62  97 E7        30.15F FOG
6HR MIN TEMP:  61; 6HR MAX TEMP:  64; 6HR PCP:  1.15;

GULFPORT       LGT RAIN  65  64  97 E13       30.14F FOG
6HR MIN TEMP:  63; 6HR MAX TEMP:  66; 6HR PCP:  0.46;

$$


USA.gov is the U.S. government's official web portal to all federal, state and local government web resources and services.